Location: Newark
(25.6108°S, 54.5803°W)
Time: 11:07:21
(UTC+00:00)

Transit 2A - Pass Details

Date: 31 October 2020
Orbit: 595 x 964 km, 66.7° (Epoch: 28 November)

Event Time Altitude Azimuth Distance (km) Brightness Sun altitude
Rises 01:09:15 0° 196° (SSW) 3,230 10.0 -38.7°
Reaches altitude 10° 01:11:39 10° 190° (S) 2,357 9.0 -39.1°
Enters shadow 01:12:56 18° 184° (S) 1,913 8.4 -39.3°
